Regional Weather Roundup
Issued by NWS

Home | Current Version | Previous Version | Text Only | Print | Product List | Glossary On
Versions: 1 2 3 4 5 6 7 8 9 10 11 12 13 14 15 16 17 18 19 20 21 22 23 24 25 26 27 28 29 30 31 32 33 34 35 36 37 38 39 40 41 42 43 44 45 46 47 48 49 50
000
ASUS43 KMKX 020911
RWRWI

WISCONSIN REGIONAL WEATHER ROUNDUP
NATIONAL WEATHER SERVICE MILWAUKEE/SULLIVAN WI
400 AM CDT THU OCT 02 2014

NOTE: "FAIR" INDICATES FEW OR NO CLOUDS BELOW 12,000 FEET WITH NO
SIGNIFICANT WEATHER AND/OR OBSTRUCTIONS TO VISIBILITY.

WIZ001-002-006>008-014>016-023>028-021000-
NORTHWEST WISCONSIN

CITY           SKY/WX    TMP DP  RH WIND       PRES   REMARKS
SUPERIOR ARPT  CLOUDY    53  53 100 W3        29.83R FOG
ASHLAND        CLOUDY    55  54  96 S5        29.84S FOG
HAYWARD        FOG       55  55 100 CALM      29.84F VSB 1
SIREN          FOG       55  54  98 CALM      29.85S VSB 1
CUMBERLAND     CLOUDY    54  52  94 CALM      29.84S FOG
RICE LAKE      CLOUDY    55  54  95 CALM      29.86R FOG
CHETEK         CLOUDY    55  55  99 CALM      29.84F FOG
LADYSMITH      CLOUDY    53  52  97 E3        29.85F FOG
EAU CLAIRE     CLOUDY    56  54  93 CALM      29.83S FOG
MENOMONIE      CLOUDY    56  55  97 CALM      29.84S FOG
NEW RICHMOND   CLOUDY    56  56  99 CALM      29.84S FOG
OSCEOLA        CLOUDY    56  56 100 CALM      29.87S FOG
$$

WIZ003>005-009-010-017-018-021000-
NORTH CENTRAL WISCONSIN

CITY           SKY/WX    TMP DP  RH WIND       PRES   REMARKS
MANITOWISH WTR CLOUDY    53  53 100 S6        29.86S FOG
ARBOR VITAE    CLOUDY    57  55  93 S5        29.87R FOG
WOODRUFF       CLOUDY    57  55  93 S5        29.87R FOG
RHINELANDER    FOG       48  48 100 SE5       29.87S VSB 1
EAGLE RIVER    CLOUDY    53  53  99 S3        29.86F FOG
LAND O LAKES   CLOUDY    54  52  95 S3        29.87F FOG
PHILLIPS       FOG       47  47 100 CALM      29.85S VSB 1/4
TOMAHAWK         N/A     47  46  95 CALM      29.87R FOG
MEDFORD        CLOUDY    53  52  96 CALM      29.85S FOG
MERRILL        CLOUDY    54  54  99 CALM      29.86S FOG
$$

WIZ029-030-035-036-043>047-021000-
CENTRAL WISCONSIN

CITY           SKY/WX    TMP DP  RH WIND       PRES   REMARKS
WAUSAU         CLOUDY    55  53  93 E5        29.84F
MOSINEE        CLOUDY    54  54 100 E3        29.85F
MARSHFIELD     CLOUDY    55  53  93 E5        29.84S FOG
STEVENS POINT  CLOUDY    53  53  98 CALM      29.86S FOG
WAUPACA        MOCLDY    57  55  94 CALM      29.85F FOG
WAUTOMA        NOT AVBL
WISC RAPIDS    MOCLDY    56  54  93 CALM      29.85F
CAMP DOUGLAS   PTCLDY    53  53 100 E3        29.82F
$$

WIZ011>013-019>022-031-037>040-048>050-021000-
NORTHEAST WISCONSIN

CITY           SKY/WX    TMP DP  RH WIND       PRES   REMARKS
ANTIGO         CLOUDY    52  52  99 CALM      29.87S FOG
SHAWANO        CLOUDY    56  54  92 CALM      29.86F FOG
OCONTO         CLOUDY    55  55 100 CALM      29.87S
STURGEON BAY   NOT AVBL
GREEN BAY      CLOUDY    58  56  93 NE5       29.86F FOG
MANITOWOC      NOT AVBL
APPLETON       CLOUDY    55  54  94 CALM      29.86S FOG
CLINTONVILLE   CLOUDY    54  54 100 E3        29.86F FOG
OSHKOSH        CLOUDY    57  56  96 CALM      29.84F
$$

WIZ032>034-041-042-053>061-021000-
SOUTHWEST WISCONSIN

CITY           SKY/WX    TMP DP  RH WIND       PRES   REMARKS
LA CROSSE      CLOUDY    60  57  89 CALM      29.82S
SPARTA         FOG       56  55  96 CALM      29.82F VSB 1/4
VIROQUA        MOCLDY    58  58 100 CALM      29.83S
BOSCOBEL       CLOUDY    63  59  87 CALM      29.82F
PRAIRIE DU CHI CLOUDY    63  59  88 CALM      29.81S
PLATTEVILLE    CLOUDY    62  59  90 E6        29.83F
$$

WIZ056-057-062-063-064-067-068-021000-
SOUTH CENTRAL WISCONSIN

CITY           SKY/WX    TMP DP  RH WIND       PRES   REMARKS
REEDSBURG      CLOUDY    59  56  91 CALM      29.83S
BARABOO/DELLS  CLOUDY    58  55  89 SE3       29.84S
LONE ROCK      CLOUDY    63  57  81 CALM      29.82F
MINERAL POINT  CLOUDY    59  55  88 CALM      29.83S FOG
MADISON        CLOUDY    62  55  77 CALM      29.83F
MIDDLETON      CLOUDY    59  56  90 CALM      29.84S
WATERTOWN      CLOUDY    60  57  89 CALM      29.84S
MONROE         CLOUDY    63  57  82 SE6       29.83F
JANESVILLE     CLOUDY    64  55  72 SE5       29.83F
$$

WIZ051-052-058>065-066-070>072-021000-
SOUTHEAST WISCONSIN

CITY           SKY/WX    TMP DP  RH WIND       PRES   REMARKS
MILWAUKEE      CLOUDY    62  56  80 SE3       29.86F
WAUKESHA       CLOUDY    57  55  94 CALM      29.87S
MILWAUKEE/TIMM LGT RAIN  59  55  88 CALM      29.87F
RACINE         CLOUDY    62  55  77 S9        29.87F
BURLINGTON     CLOUDY    58  56  95 CALM      29.85F
KENOSHA        NOT AVBL
FOND DU LAC    CLOUDY    58  55  90 SE3       29.85S
SHEBOYGAN      CLOUDY    60  56  86 S6        29.86F
WEST BEND      LGT RAIN  59  54  82 CALM      29.86R
JUNEAU         CLOUDY    59  55  85 CALM      29.86R
$$

LSZ147-162-021000-
LAKE SUPERIOR

STATION/POSITION TIME  TEMP    WIND        PRES    WAVE
                       AIR SEA DIR/SP/G            HT/PER
                 (UTC) (F)     (DEG/KT/KT) (MB)    (FT/S)
W MID LAKE BUOY  0850   52 49  210/  6/  6 1010.1F   0
DEVILS ISLAND    0900   53     190/  5/  6 1010.0F
SAXON HARBOR     0800   54        CALM     1010.5S
$$

LMZ867-665-643>646-021000-
LAKE MICHIGAN

STATION/POSITION TIME  TEMP    WIND        PRES    WAVE
                       AIR SEA DIR/SP/G            HT/PER
                 (UTC) (F)     (DEG/KT/KT) (MB)    (FT/S)
CHAMBERS ISLAND  0800   56     150/  2/  6 1012.5F
S GREEN BAY BUOY 0700   59                 1013.3F
N MID LAKE BUOY  0850   58 58  170/ 12/ 14 1013.0F   2/ 5
NORTHPORT PIER   0800   56     150/  8/ 12 1012.2F
SISTER BAY       0712          170/ 11/ 17   N/A
KEWAUNEE LAKESHO 0800   56     180/  4/  6 1011.0F
SHEBOYGAN LAKESH 0900   58 56  160/  9/  9 1011.7F
PORT WASHINGTON  0800   59      CALM  /  2 1011.9F
ATWATER BUOY     0900   60     150/  6/  8 1012.5F
MILWAUKEE LAKESH 0800   61     160/ 10/ 12   N/A
S MID LAKE BUOY  0850   63 62  160/ 17/ 19 1011.7F   4/ 5
KENOSHA   LAKESH 0900   61     180/  7/ 13 1010.8F
$$

TC  - TEMPERATURE IN CELSIUS
VSB - VISIBILITY IN STATUTE MILES
WCI - WIND CHILL INDEX
HX  - HEAT INDEX




USA.gov is the U.S. government's official web portal to all federal, state and local government web resources and services.